Change the Weather History Date:

Monday, January 3, 2011

  Actual Average Record
Temperature  
Mean Temperature 16 °F -  
Max Temperature 19 °F 23 °F 46 °F (1998)
Min Temperature 12 °F 5 °F -23 °F (1979)
Degree Days  
Heating Degree Days 50    
Moisture  
Dew Point 13 °F    
Average Humidity 82    
Maximum Humidity 92    
Minimum Humidity 71    
Precipitation  
Precipitation 0.00 in - - ()
Sea Level Pressure  
Sea Level Pressure 29.93 in    
Wind  
Wind Speed 2 mph (NW)    
Max Wind Speed 8 mph    
Max Gust Speed -    
Visibility 5 miles    
Events Snow    
Averages and records for this station are not official NWS values.
T = Trace of Precipitation, MM = Missing Value Source: NWS Daily Summary

Daily Weather History Graph

Daily Weather History Graph

Search for Another Location

Airport or City:

Trip Planner

Search our weather history database for the weather conditions in past years. The results will help you decide how hot, cold, wet, or windy it might be!

Date:

Astronomy

Jan. 03, 2011 Rise Set
Actual Time 7:37 AM CST 4:32 PM CST
Civil Twilight 7:04 AM CST 5:06 PM CST
Nautical Twilight 6:27 AM CST 5:42 PM CST
Astronomical Twilight 5:52 AM CST 6:18 PM CST
Moon 7:04 AM CST 4:03 PM CST
Length of Visible Light 10h 01m
Length of Day
8h 55m
Waning Crescent, 0% of the Moon is Illuminated
Jan 3
Waning Crescent
Jan 4
New
Jan 12
First Quarter
Jan 19
Full
Jan 26
Last Quarter

Hourly Weather History & Observations

Time (CST) Temp. Windchill Dew Point Humidity Pressure Visibility Wind Dir Wind Speed Gust Speed Precip Events Conditions
12:54 AM 14.0 °F 8.2 °F 8.1 °F 77% 30.01 in 9.0 mi East 3.5 mph - 0.00 in Snow Light Snow
1:54 AM 15.1 °F - 9.0 °F 77% 30.00 in 5.0 mi Calm Calm - 0.00 in Snow Light Snow
2:46 AM 15.8 °F - 10.4 °F 79% 29.93 in 3.0 mi Calm Calm - 0.00 in Snow Light Snow
2:54 AM 15.1 °F - 10.0 °F 80% 30.01 in 2.5 mi Calm Calm - 0.00 in Snow Light Snow
3:02 AM 15.8 °F - 10.4 °F 79% 29.93 in 3.0 mi Calm Calm - 0.00 in Snow Light Snow
3:23 AM 15.8 °F - 10.4 °F 79% 29.93 in 2.5 mi Calm Calm - 0.00 in Snow Light Snow
3:47 AM 15.8 °F - 10.4 °F 79% 29.92 in 4.0 mi Calm Calm - 0.00 in Snow Light Snow
3:54 AM 15.1 °F - 10.9 °F 84% 30.00 in 3.0 mi Calm Calm - 0.00 in Snow Light Snow
4:04 AM 15.8 °F - 10.4 °F 79% 29.91 in 5.0 mi Calm Calm - 0.00 in Snow Light Snow
4:54 AM 15.1 °F - 10.0 °F 80% 29.99 in 7.0 mi Calm Calm - 0.00 in   Overcast
5:05 AM 14.0 °F - 10.4 °F 86% 29.91 in 9.0 mi Calm Calm - N/A   Overcast
5:54 AM 14.0 °F - 10.0 °F 84% 30.00 in 8.0 mi Calm Calm - 0.00 in   Overcast
6:20 AM 14.0 °F - 10.4 °F 86% 29.93 in 8.0 mi Calm Calm - N/A   Overcast
6:54 AM 14.0 °F - 10.0 °F 84% 30.02 in 7.0 mi Calm Calm - N/A   Overcast
7:54 AM 14.0 °F - 10.0 °F 84% 30.01 in 8.0 mi Calm Calm - N/A   Overcast
8:54 AM 12.0 °F - 10.0 °F 92% 30.03 in 6.0 mi Calm Calm - N/A   Overcast
9:54 AM 15.1 °F 7.7 °F 10.0 °F 80% 30.04 in 10.0 mi WSW 4.6 mph - N/A   Clear
10:25 AM 15.8 °F 8.6 °F 10.4 °F 79% 29.96 in 9.0 mi WNW 4.6 mph - N/A   Mostly Cloudy
10:54 AM 16.0 °F 8.8 °F 10.9 °F 81% 30.04 in 9.0 mi WNW 4.6 mph - N/A   Partly Cloudy
11:31 AM 17.6 °F 10.7 °F 10.4 °F 73% 29.95 in 10.0 mi West 4.6 mph - N/A   Mostly Cloudy
11:54 AM 18.0 °F 9.8 °F 12.0 °F 78% 30.01 in 8.0 mi West 5.8 mph - N/A   Overcast
12:01 PM 17.6 °F 9.3 °F 12.2 °F 79% 29.93 in 9.0 mi West 5.8 mph - N/A   Overcast
12:54 PM 19.0 °F 9.0 °F 12.0 °F 74% 29.99 in 6.0 mi West 8.1 mph - N/A   Haze
1:18 PM 19.4 °F 11.5 °F 12.2 °F 74% 29.91 in 10.0 mi West 5.8 mph - N/A   Overcast
1:54 PM 19.9 °F 12.1 °F 12.0 °F 71% 29.98 in 10.0 mi West 5.8 mph - N/A   Mostly Cloudy
2:01 PM 19.4 °F 11.5 °F 12.2 °F 74% 29.90 in 10.0 mi WNW 5.8 mph - N/A   Mostly Cloudy
3:54 PM 19.9 °F - 12.9 °F 74% 29.96 in 6.0 mi Calm Calm - N/A   Haze
4:54 PM 19.9 °F - 14.0 °F 78% 29.96 in 3.0 mi Calm Calm - 0.00 in Snow Light Snow
5:03 PM 19.4 °F - 15.8 °F 86% 29.88 in 2.0 mi Calm Calm - 0.00 in Snow Light Snow
5:29 PM 19.4 °F - 15.8 °F 86% 29.89 in 3.0 mi Calm Calm - 0.00 in Snow Light Snow
5:40 PM 19.4 °F - 15.8 °F 86% 29.88 in 1.8 mi Calm Calm - 0.00 in Snow Light Snow
5:54 PM 19.0 °F - 16.0 °F 88% 29.96 in 1.5 mi Calm Calm - 0.00 in Snow Light Snow
6:38 PM 19.4 °F - 15.8 °F 86% 29.88 in 1.8 mi Calm Calm - 0.00 in Snow Light Snow
6:54 PM 19.0 °F - 16.0 °F 88% 29.95 in 1.8 mi Calm Calm - 0.00 in Snow Light Snow
7:35 PM 19.4 °F 14.3 °F 15.8 °F 86% 29.86 in 2.0 mi ENE 3.5 mph - 0.00 in Snow Light Snow
7:44 PM 19.4 °F 14.3 °F 15.8 °F 86% 29.85 in 1.5 mi ENE 3.5 mph - 0.00 in Snow Light Snow
7:54 PM 19.0 °F 13.9 °F 16.0 °F 88% 29.92 in 1.5 mi East 3.5 mph - 0.00 in Snow Light Snow
8:01 PM 19.4 °F - 15.8 °F 86% 29.85 in 1.5 mi Calm Calm - 0.00 in Snow Light Snow
8:37 PM 19.4 °F - 15.8 °F 86% 29.84 in 2.5 mi Calm Calm - 0.00 in Snow Light Snow
8:45 PM 19.4 °F 14.3 °F 15.8 °F 86% 29.84 in 1.2 mi ENE 3.5 mph - 0.00 in Snow Light Snow
8:54 PM 19.0 °F 13.9 °F 16.0 °F 88% 29.91 in 1.8 mi ENE 3.5 mph - 0.00 in Snow Light Snow
9:04 PM 19.4 °F - 15.8 °F 86% 29.83 in 2.0 mi Calm Calm - 0.00 in Snow Light Snow
9:14 PM 19.4 °F - 15.8 °F 86% 29.83 in 1.8 mi Calm Calm - 0.00 in Snow Light Snow
9:54 PM 19.9 °F - 16.0 °F 85% 29.91 in 1.2 mi Calm Calm - 0.00 in Snow Light Snow
10:10 PM 19.4 °F - 15.8 °F 86% 29.83 in 1.8 mi Calm Calm - 0.00 in Snow Light Snow
10:17 PM 19.4 °F - 15.8 °F 86% 29.82 in 2.5 mi Calm Calm - 0.00 in Snow Light Snow
10:26 PM 19.4 °F - 15.8 °F 86% 29.83 in 4.0 mi Calm Calm - 0.00 in Snow Light Snow
10:54 PM 19.0 °F 12.3 °F 16.0 °F 88% 29.90 in 6.0 mi NNW 4.6 mph - 0.00 in   Overcast
11:54 PM 19.0 °F 10.0 °F 16.0 °F 88% 29.89 in 5.0 mi WNW 6.9 mph - 0.00 in Snow Light Snow